LKMT Weather Reports


time (UTC)temp
C
wind
direction
speed
KPH
gust
KPH
rain 1hr
cm
rain 24hr
cm
rain mn
cm
humidity
%
barometer
mb
20260903043224 12 0 1.6 0.0 0.00 0.00 0.00 93 1020.0
20260903042558 13 0 3.2 0.0 0.00 0.00 0.00 82
20260903040233 13 0 1.6 0.0 0.00 0.00 0.00 87 1020.0
20260903033224 13 260 4.8 0.0 0.00 0.00 0.00 87 1019.0
20260903032155 13 0 8.0 0.0 0.00 0.00 0.00 87
20260903030234 13 280 3.2 0.0 0.00 0.00 0.00 87 1020.0
20260903023224 15 190 9.7 0.0 0.00 0.00 0.00 82 1020.0
20260903022155 15 190 11.3 0.0 0.00 0.00 0.00 82
20260903020233 15 180 11.3 0.0 0.00 0.00 0.00 82 1020.0
20260903013224 16 170 8.0 0.0 0.00 0.00 0.00 77 1020.0
20260903012356 16 170 8.0 0.0 0.00 0.00 0.00 77
20260903010233 16 170 8.0 0.0 0.00 0.00 0.00 77 1020.0
20260903003224 16 200 8.0 0.0 0.00 0.00 0.00 77 1020.0
20260903002158 15 180 3.2 0.0 0.00 0.00 0.00 82
20260903000233 15 0 3.2 0.0 0.00 0.00 0.00 87 1020.0
20260902233224 15 230 9.7 0.0 0.00 0.00 0.00 82 1020.0
20260902232155 15 210 8.0 0.0 0.00 0.00 0.00 82
20260902230232 15 0 3.2 0.0 0.00 0.00 0.00 82 1020.0
20260902223223 16 0 3.2 0.0 0.00 0.00 0.00 77 1020.0
20260902222558 16 190 3.2 0.0 0.00 0.00 0.00 82
20260902220231 16 190 3.2 0.0 0.00 0.00 0.00 82 1020.0
20260902213224 16 0 0.0 0.0 0.00 0.00 0.00 82 1019.0
20260902212211 17 0 0.0 0.0 0.00 0.00 0.00 77
20260902210241 17 20 1.6 0.0 0.00 0.00 0.00 77 1019.0
20260902203231 17 130 1.6 0.0 0.00 0.00 0.00 77 1019.0
20260902202214 17 0 3.2 0.0 0.00 0.00 0.00 77
20260902200235 17 0 0.0 0.0 0.00 0.00 0.00 77 1019.0
20260902193223 17 0 1.6 0.0 0.00 0.00 0.00 77 1019.0
20260902192358 18 0 3.2 0.0 0.00 0.00 0.00 68
20260902190239 18 0 1.6 0.0 0.00 0.00 0.00 68 1019.0
20260902183231 20 100 4.8 0.0 0.00 0.00 0.00 64 1019.0
20260902182155 21 70 8.0 0.0 0.00 0.00 0.00 56
20260902180234 20 60 3.2 0.0 0.00 0.00 0.00 64 1019.0
20260902173230 22 0 3.2 0.0 0.00 0.00 0.00 53 1019.0
20260902172358 22 0 3.2 0.0 0.00 0.00 0.00 53
20260902170232 22 10 4.8 0.0 0.00 0.00 0.00 53 1019.0
20260902163230 22 360 4.8 0.0 0.00 0.00 0.00 53 1019.0
20260902162559 23 0 8.0 0.0 0.00 0.00 0.00 44
20260902160233 22 360 4.8 0.0 0.00 0.00 0.00 46 1019.0
20260902153230 23 240 14.5 0.0 0.00 0.00 0.00 41 1019.0
20260902152155 23 0 11.3 0.0 0.00 0.00 0.00 38
20260902150235 23 250 9.7 0.0 0.00 0.00 0.00 38 1019.0
20260902143231 25 240 19.3 0.0 0.00 0.00 0.00 33 1019.0
20260902142358 25 240 19.3 0.0 0.00 0.00 0.00 36
20260902140240 25 260 12.9 0.0 0.00 0.00 0.00 36 1019.0
20260902133230 25 250 19.3 0.0 0.00 0.00 0.00 33 1019.0
20260902132355 25 240 19.3 0.0 0.00 0.00 0.00 36
20260902130233 26 240 20.9 0.0 0.00 0.00 0.00 34 1020.0
20260902123231 25 240 22.5 0.0 0.00 0.00 0.00 36 1020.0
20260902122156 25 230 22.5 0.0 0.00 0.00 0.00 38
20260902120233 25 230 24.1 0.0 0.00 0.00 0.00 36 1020.0
20260902113230 25 240 22.5 0.0 0.00 0.00 0.00 38 1020.0
20260902112355 25 230 25.7 0.0 0.00 0.00 0.00 41
20260902110240 23 230 22.5 0.0 0.00 0.00 0.00 41 1020.0
20260902103231 23 220 22.5 0.0 0.00 0.00 0.00 41 1021.0
20260902102457 22 210 22.5 0.0 0.00 0.00 0.00 46
20260902100234 22 220 20.9 0.0 0.00 0.00 0.00 46 1021.0
20260902093231 22 220 20.9 0.0 0.00 0.00 0.00 46 1021.0
20260902092157 22 240 25.7 0.0 0.00 0.00 0.00 49
20260902090233 22 230 22.5 0.0 0.00 0.00 0.00 49 1021.0
20260902083231 21 220 16.1 0.0 0.00 0.00 0.00 52 1021.0
20260902082357 18 0 8.0 0.0 0.00 0.00 0.00 63
20260902080234 17 240 9.7 0.0 0.00 0.00 0.00 67 1021.0
20260902073231 17 240 9.7 0.0 0.00 0.00 0.00 72 1021.0
20260902072255 16 250 11.3 0.0 0.00 0.00 0.00 77
20260902070239 15 250 9.7 0.0 0.00 0.00 0.00 82 1021.0
20260902063229 13 240 8.0 0.0 0.00 0.00 0.00 82 1021.0
20260902062155 12 250 11.3 0.0 0.00 0.00 0.00 87
20260902060230 12 250 9.7 0.0 0.00 0.00 0.00 87 1021.0
20260902053224 12 230 9.7 0.0 0.00 0.00 0.00 82 1021.0
20260902052338 12 210 11.3 0.0 0.00 0.00 0.00 82
20260902050226 12 210 11.3 0.0 0.00 0.00 0.00 87 1021.0